Regional Weather Roundup
Issued by NWS

Home | Current Version | Previous Version | Graphics & Text | Print | Product List | Glossary Off
Versions: 1 2 3 4 5 6 7 8 9 10 11 12 13 14 15 16 17 18 19 20 21 22 23 24 25 26 27 28 29 30 31 32 33 34 35 36 37 38 39 40 41 42 43 44 45 46 47 48 49 50

000
ASUS43 KMPX 051301
RWRMN
WEATHER ROUNDUP FOR MINNESOTA
NATIONAL WEATHER SERVICE TWIN CITIES/CHANHASSEN MN
800 AM CDT SUN JUL 05 2015


NOTE: "FAIR" INDICATES FEW OR NO CLOUDS BELOW 12,000 FEET WITH NO
SIGNIFICANT WEATHER AND/OR OBSTRUCTIONS TO VISIBILITY. N/A MEANS
CURRENT SKY AND/OR WEATHER CONDITIONS ARE NOT AVAILABLE.

MNZ060>063-068>070-051400-
   Twin Cities Metro

CITY           SKY/WX    TMP DP  RH WIND       PRES   REMARKS
TWIN CITIES    CLOUDY    72  61  68 S8        29.94F
ST PAUL        MOSUNNY   70  62  76 S8        29.95S
CRYSTAL        MOSUNNY   73  60  63 S9        29.92S
BLAINE         MOSUNNY   72  63  73 S6        29.94R
LAKEVILLE      MOSUNNY   66  61  82 S7        29.96R
EDEN PRAIRIE   MOSUNNY   69  60  73 S10       29.94S
SOUTH ST PAUL  PTSUNNY   70  60  71 S9        29.95S
LAKE ELMO      FAIR      66  61  82 S7        29.97R
$$
MNZ001>005-007-008-013>017-022>024-027-028-051400-
   Northwest Minnesota

CITY           SKY/WX    TMP DP  RH WIND       PRES   REMARKS
BEMIDJI        LGT RAIN  65  63  94 SE3       29.84F
HALLOCK        CLOUDY    66  64  94 N6        29.77F
ROSEAU         MOSUNNY   64  61  88 CALM      29.79R
WARROAD        MOSUNNY   68  64  88 W3        29.79S
THIEF RVR FALL PTSUNNY   70  64  83 S13       29.74F
CROOKSTON      MOSUNNY   70  66  88 S16G22    29.75F
FOSSTON        LGT RAIN  63  61  94 SE10      29.78F
DETROIT LAKES  MOSUNNY   68  63  83 SE12G17   29.83F
MOORHEAD       SUNNY     72  66  83 SE8       29.78F
PARK RAPIDS    PTSUNNY   69  62  78 SE9       29.86F HAZE
MAHNOMEN       LGT RAIN  67  63  85 SE8       29.81F
$$
MNZ006-009>011-018-025>026-051400-
   North Central Minnesota

CITY           SKY/WX    TMP DP  RH WIND       PRES   REMARKS
BAUDETTE       PTSUNNY   68  64  87 SW6       29.78R
INTL FALLS     CLOUDY    66  64  93 CALM      29.81R FOG
WASKISH        CLOUDY    64  64 100 S7        29.81R
BIG FORK       CLOUDY    70  64  83 S8        29.85R FOG
LONGVILLE      PTSUNNY   70  64  83 S5        29.87F
GRAND RAPIDS   PTSUNNY   66  63  88 S5        29.88F
CRANE LAKE     CLOUDY    66  63  88 S7        29.84R
ORR            CLOUDY    66  61  82 S7        29.83S
COOK           CLOUDY    66  63  88 S10       29.87R
WALKER         FAIR      68  63  83 S6        29.86F
$$
MNZ012-019>021-037-051400-
   Northeast Minnesota

CITY           SKY/WX    TMP DP  RH WIND       PRES   REMARKS
DULUTH         PTSUNNY   65  60  84 S12       29.92S HAZE
ELY            CLOUDY    66  61  82 SW9G16    29.88R
HIBBING        PTSUNNY   65  61  87 VRB6      29.89S
DULUTH HARBOR  PTSUNNY   61  57  88 CALM      29.93S
TWO HARBORS    CLOUDY    61  55  82 NW1       29.91S
SILVER BAY     PTSUNNY   63  55  77 CALM      29.90S
GRAND MARAIS     N/A     52  49  89 SW5       29.91R
G MARAIS ARPRT PTSUNNY   63  55  77 SW6       29.93R
$$
MNZ029>031-032-039>041-046>048-054>057-064-051400-
   West Central Minnesota

CITY           SKY/WX    TMP DP  RH WIND       PRES   REMARKS
FERGUS FALLS   DRIZZLE   70  63  78 SE17      29.80F
WHEATON        MOSUNNY   68  63  83 SE12G17   29.83R
MORRIS         PTSUNNY   70  63  78 SE12      29.83R
ALEXANDRIA     PTSUNNY   68  62  81 S12       29.88R
ELBOW LAKE     FAIR      67  63  85 SE12      29.83S
WADENA         MOSUNNY   68  63  83 SE8       29.86F
GLENWOOD       CLOUDY    68  63  83 SE9       29.88S
APPLETON       CLOUDY    72  63  73 SE6       29.82R
BENSON         CLOUDY    70  61  73 S8        29.85S
ORTONVILLE     CLOUDY    70  64  83 SE6       29.82R
MADISON        CLOUDY    72  64  78 SE5       29.82S
WILLMAR        FAIR      70  63  78 SE7       29.89F
$$
MNZ033>034-036-042>043-049>051-058-059-051400-
   Central Minnesota

CITY           SKY/WX    TMP DP  RH WIND       PRES   REMARKS
ST CLOUD       PTSUNNY   67  62  84 S6        29.91S
SAUK CENTRE    FAIR      66  62  87 SE8       29.89S
PAYNESVILLE    PTSUNNY   65  60  85 SE10      29.90S
AITKIN         CLOUDY    70  63  78 S3        29.89F
PINE RIVER       N/A     68  63  83 SE6       29.91F HAZE
BRAINERD       PTSUNNY   66  61  84 S8        29.90F HAZE
STAPLES        MOSUNNY   66  61  82 SE6       29.88S
LONG PRAIRIE   FAIR      64  61  88 SE8       29.89S
LITTLE FALLS   PTSUNNY   64  59  82 SE7         N/A
LITCHFIELD     CLOUDY    70  64  83 SE3       29.91S
BUFFALO        MOSUNNY   69  60  73 S7        29.94S
MAPLE LAKE     PTSUNNY   69  63  81 S3        29.93R
$$
MNZ037-044-045-052-053-051400-
   East Central Minnesota

CITY           SKY/WX    TMP DP  RH WIND       PRES   REMARKS
PRINCETON      MOSUNNY   68  63  83 S7        29.92S
MORA           PTSUNNY   64  59  82 S6        29.95R
CAMBRIDGE      PTSUNNY   70  57  64 CALM      29.92R
RUSH CITY      PTSUNNY   67  62  84 S7        29.94R
MOOSE LAKE     PTSUNNY   64  61  88 S7        29.90F FOG
HINCKLEY       FAIR      68  63  83 S7        29.94R
CLOQUET        MOSUNNY   61  59  94 S5        29.92F FOG
MCGREGOR       PTSUNNY   66  61  82 S7        29.92S
$$
MNZ071>073-080-081-089-090-097-098-051400-
   Southwest Minnesota

CITY           SKY/WX    TMP DP  RH WIND       PRES   REMARKS
MONTEVIDEO     CLOUDY    72  64  78 S9        29.85S
GRANITE FALLS  CLOUDY    69  63  80 SE12G20   29.84F
CANBY          CLOUDY    75  58  54 SW10G25   29.79R
MARSHALL       CLOUDY    70  61  73 SW20      29.84F
REDWOOD FALLS  CLOUDY    70  62  76 S12       29.88F
OLIVIA         CLOUDY    68  61  77 SE10      29.88F
PIPESTONE      RAIN      66  64  94 S10G20    29.92F
WINDOM         CLOUDY    70  61  73 S9        29.94S
WORTHINGTON    CLOUDY    66  61  82 SW10      29.96R
JACKSON        CLOUDY    68  61  77 S7        29.96R
TRACY          CLOUDY    70  63  78 S17G25    29.89F
SLAYTON        CLOUDY    67  63  87 CALM      29.94F
$$
MNZ065>067-074>077-082>085-091>093-051400-
   South Central Minnesota

CITY           SKY/WX    TMP DP  RH WIND       PRES   REMARKS
MANKATO        PTSUNNY   66  59  77 S9        29.95F
NEW ULM        CLOUDY    64  63  94 S9        29.93F
ST JAMES       CLOUDY    70  63  78 S10       29.95R
FAIRMONT       CLOUDY    66  57  72 S8        29.95S
GLENCOE        PTSUNNY   68  63  83 S9        29.93R
FARIBAULT      MOSUNNY   66  61  82 S6        29.97S
OWATONNA       MOSUNNY   68  59  73 S10G16    29.98S
WASECA         PTSUNNY   68  61  77 S7        29.98F
ALBERT LEA     MOSUNNY   68  61  77 S7        29.99S
$$
MNZ078>079-086>088-094>096-051400-
   Southeast Minnesota

CITY           SKY/WX    TMP DP  RH WIND       PRES   REMARKS
ROCHESTER      SUNNY     66  61  84 S10       30.01R
RED WING       SUNNY     70  61  73 S5        29.96S
DODGE CENTER   MOSUNNY   66  63  88 S13       30.00R
WINONA         SUNNY     70  59  68 SW3       30.00S
AUSTIN         SUNNY     66  63  88 S9        30.00S
PRESTON        SUNNY     64  60  86 S8        30.02S
$$
ABBREVIATIONS USED IN REMARKS
   TC - TEMPERATURES IN CELSIUS
  WCI - WIND CHILL INDEX
   HX - HEAT INDEX
  VSB - VISIBILITY
$$


USA.gov is the U.S. government's official web portal to all federal, state and local government web resources and services.